Time,TemperatureF,DewpointF,PressureIn,WindDirection,WindDirectionDegrees,WindSpeedMPH,WindSpeedGustMPH,Humidity,HourlyPrecipIn,Conditions,Clouds,dailyrainin,SoftwareType,DateUTC
2013-04-17 00:00:00,62.6,56.0,30.16,NNW,336,4.0,11.0,79,0.00,,---,0.00,VWS V14.01,2013-04-17 04:00:00,
2013-04-17 00:01:00,62.6,56.0,30.16,NW,304,8.0,9.0,79,0.00,,---,0.00,VWS V14.01,2013-04-17 04:01:00,
2013-04-17 00:02:00,62.6,56.3,30.16,NNW,331,6.0,9.0,80,0.00,,---,0.00,VWS V14.01,2013-04-17 04:02:00,
2013-04-17 00:07:00,62.2,56.3,30.17,North,354,4.0,9.0,81,0.00,,---,0.00,VWS V14.01,2013-04-17 04:07:00,
2013-04-17 00:12:00,62.0,56.5,30.18,WNW,301,12.0,12.0,82,0.00,,---,0.00,VWS V14.01,2013-04-17 04:12:00,
2013-04-17 00:17:00,61.6,56.4,30.18,NNW,338,5.0,13.0,83,0.00,,---,0.00,VWS V14.01,2013-04-17 04:17:00,
2013-04-17 00:22:00,61.3,56.4,30.18,NW,324,6.0,13.0,84,0.00,,---,0.00,VWS V14.01,2013-04-17 04:22:00,
2013-04-17 00:27:00,60.9,56.4,30.18,NNW,333,8.0,13.0,85,0.00,,---,0.00,VWS V14.01,2013-04-17 04:27:00,
2013-04-17 00:32:00,60.6,56.4,30.18,NNW,328,3.0,9.0,86,0.00,,---,0.00,VWS V14.01,2013-04-17 04:32:00,
2013-04-17 00:37:00,60.4,56.5,30.18,NNW,330,3.0,12.0,87,0.00,,---,0.00,VWS V14.01,2013-04-17 04:37:00,
2013-04-17 00:42:00,60.2,56.3,30.19,NNW,335,1.0,12.0,87,0.00,,---,0.00,VWS V14.01,2013-04-17 04:42:00,
2013-04-17 00:47:00,60.1,56.5,30.19,WNW,302,1.0,12.0,88,0.00,,---,0.00,VWS V14.01,2013-04-17 04:47:00,
2013-04-17 00:52:00,59.9,56.3,30.19,WNW,293,4.0,12.0,88,0.00,,---,0.00,VWS V14.01,2013-04-17 04:52:00,
2013-04-17 00:57:00,59.8,56.2,30.20,NW,311,1.0,12.0,88,0.00,,---,0.00,VWS V14.01,2013-04-17 04:57:00,
2013-04-17 01:02:00,59.5,56.3,30.18,NNW,344,12.0,12.0,89,0.02,,---,0.02,VWS V14.01,2013-04-17 05:02:00,
2013-04-17 01:07:00,58.8,56.2,30.17,NW,323,3.0,14.0,91,0.03,,---,0.03,VWS V14.01,2013-04-17 05:07:00,
2013-04-17 01:12:00,58.4,56.1,30.17,NE,34,2.0,14.0,92,0.04,,---,0.04,VWS V14.01,2013-04-17 05:12:00,
2013-04-17 01:17:00,58.1,56.1,30.17,WSW,257,1.0,14.0,93,0.04,,---,0.04,VWS V14.01,2013-04-17 05:17:00,
2013-04-17 01:22:00,57.9,56.2,30.17,NNW,338,2.0,14.0,94,0.05,,---,0.05,VWS V14.01,2013-04-17 05:22:00,
2013-04-17 01:27:00,57.8,56.1,30.16,NNW,340,2.0,14.0,94,0.05,,---,0.05,VWS V14.01,2013-04-17 05:27:00,
2013-04-17 01:32:00,57.7,56.3,30.15,NNE,33,2.0,3.0,95,0.05,,---,0.05,VWS V14.01,2013-04-17 05:32:00,
2013-04-17 01:37:00,57.5,56.1,30.15,NNE,25,2.0,3.0,95,0.05,,---,0.05,VWS V14.01,2013-04-17 05:37:00,
2013-04-17 01:42:00,57.4,56.0,30.14,NNE,29,2.0,3.0,95,0.05,,---,0.05,VWS V14.01,2013-04-17 05:42:00,
2013-04-17 01:47:00,57.2,56.1,30.13,NNE,26,0.0,3.0,96,0.05,,---,0.05,VWS V14.01,2013-04-17 05:47:00,
2013-04-17 01:52:00,57.1,56.0,30.12,NE,39,0.0,3.0,96,0.05,,---,0.05,VWS V14.01,2013-04-17 05:52:00,
2013-04-17 01:57:00,57.0,55.9,30.12,ESE,122,2.0,3.0,96,0.05,,---,0.05,VWS V14.01,2013-04-17 05:57:00,
2013-04-17 02:02:00,57.0,55.9,30.12,SE,130,3.0,4.0,96,0.05,,---,0.05,VWS V14.01,2013-04-17 06:02:00,
2013-04-17 02:07:00,57.0,56.2,30.12,ESE,115,4.0,8.0,97,0.05,,---,0.05,VWS V14.01,2013-04-17 06:07:00,
2013-04-17 02:13:00,57.0,56.2,30.12,SE,133,4.0,8.0,97,0.05,,---,0.05,VWS V14.01,2013-04-17 06:13:00,
2013-04-17 02:18:00,57.0,56.2,30.12,ESE,113,7.0,8.0,97,0.05,,---,0.05,VWS V14.01,2013-04-17 06:18:00,
2013-04-17 02:23:00,57.1,56.3,30.12,SE,124,6.0,8.0,97,0.05,,---,0.05,VWS V14.01,2013-04-17 06:23:00,
2013-04-17 02:28:00,57.1,56.0,30.11,SE,142,2.0,8.0,96,0.05,,---,0.05,VWS V14.01,2013-04-17 06:28:00,
2013-04-17 02:33:00,57.2,56.1,30.11,SSE,150,2.0,6.0,96,0.00,,---,0.05,VWS V14.01,2013-04-17 06:33:00,
2013-04-17 02:38:00,57.1,56.0,30.11,SSE,149,3.0,6.0,96,0.00,,---,0.05,VWS V14.01,2013-04-17 06:38:00,
2013-04-17 02:43:00,57.0,55.9,30.11,SSE,152,1.0,6.0,96,0.00,,---,0.05,VWS V14.01,2013-04-17 06:43:00,
2013-04-17 02:48:00,56.9,55.8,30.12,SSE,148,1.0,6.0,96,0.00,,---,0.05,VWS V14.01,2013-04-17 06:48:00,
2013-04-17 02:53:00,56.9,56.1,30.13,SW,228,2.0,6.0,97,0.00,,---,0.05,VWS V14.01,2013-04-17 06:53:00,
2013-04-17 02:58:00,57.0,56.2,30.15,West,263,1.0,6.0,97,0.00,,---,0.05,VWS V14.01,2013-04-17 06:58:00,
2013-04-17 03:03:00,57.0,56.2,30.15,SW,230,3.0,7.0,97,0.03,,---,0.08,VWS V14.01,2013-04-17 07:03:00,
2013-04-17 03:08:00,57.2,56.4,30.14,SE,130,0.0,8.0,97,0.06,,---,0.11,VWS V14.01,2013-04-17 07:08:00,
2013-04-17 03:13:00,57.1,56.3,30.13,ESE,117,4.0,8.0,97,0.07,,---,0.12,VWS V14.01,2013-04-17 07:13:00,
2013-04-17 03:18:00,57.1,56.3,30.13,SE,139,5.0,8.0,97,0.08,,---,0.13,VWS V14.01,2013-04-17 07:18:00,
2013-04-17 03:23:00,57.0,56.2,30.12,ESE,117,6.0,8.0,97,0.09,,---,0.14,VWS V14.01,2013-04-17 07:23:00,
2013-04-17 03:28:00,56.9,56.1,30.11,SE,132,3.0,8.0,97,0.09,,---,0.14,VWS V14.01,2013-04-17 07:28:00,
2013-04-17 03:33:00,56.9,56.1,30.11,SSE,148,4.0,6.0,97,0.10,,---,0.15,VWS V14.01,2013-04-17 07:33:00,
2013-04-17 03:38:00,56.9,56.1,30.11,ESE,113,8.0,8.0,97,0.12,,---,0.17,VWS V14.01,2013-04-17 07:38:00,
2013-04-17 03:43:00,56.8,56.0,30.11,SSE,160,4.0,8.0,97,0.13,,---,0.18,VWS V14.01,2013-04-17 07:43:00,
2013-04-17 03:48:00,56.8,56.0,30.11,SSE,155,1.0,8.0,97,0.14,,---,0.19,VWS V14.01,2013-04-17 07:48:00,
2013-04-17 03:53:00,56.8,56.0,30.12,SSW,208,1.0,8.0,97,0.15,,---,0.20,VWS V14.01,2013-04-17 07:53:00,
2013-04-17 03:58:00,57.1,56.0,30.12,SW,224,5.0,8.0,96,0.15,,---,0.20,VWS V14.01,2013-04-17 07:58:00,
2013-04-17 04:03:00,57.4,56.0,30.12,SSW,210,2.0,5.0,95,0.15,,---,0.21,VWS V14.01,2013-04-17 08:03:00,
2013-04-17 04:08:00,57.6,55.9,30.12,ESE,121,2.0,6.0,94,0.15,,---,0.21,VWS V14.01,2013-04-17 08:08:00,
2013-04-17 04:13:00,57.6,55.9,30.13,WNW,297,1.0,6.0,94,0.15,,---,0.21,VWS V14.01,2013-04-17 08:13:00,
2013-04-17 04:18:00,57.6,55.9,30.13,SW,232,3.0,8.0,94,0.15,,---,0.21,VWS V14.01,2013-04-17 08:18:00,
2013-04-17 04:23:00,57.7,56.0,30.13,West,272,1.0,8.0,94,0.16,,---,0.22,VWS V14.01,2013-04-17 08:23:00,
2013-04-17 04:28:00,57.6,56.2,30.13,SW,236,4.0,8.0,95,0.18,,---,0.24,VWS V14.01,2013-04-17 08:28:00,
2013-04-17 04:34:00,57.7,56.3,30.13,SW,218,6.0,8.0,95,0.10,,---,0.25,VWS V14.01,2013-04-17 08:34:00,
2013-04-17 04:39:00,57.8,56.4,30.13,South,169,6.0,9.0,95,0.11,,---,0.26,VWS V14.01,2013-04-17 08:39:00,
2013-04-17 04:44:00,57.8,56.4,30.13,SW,218,2.0,9.0,95,0.13,,---,0.28,VWS V14.01,2013-04-17 08:44:00,
2013-04-17 04:49:00,57.8,56.1,30.13,SW,236,2.0,9.0,94,0.14,,---,0.29,VWS V14.01,2013-04-17 08:49:00,
2013-04-17 04:54:00,57.6,55.9,30.13,SSW,204,4.0,9.0,94,0.15,,---,0.30,VWS V14.01,2013-04-17 08:54:00,
2013-04-17 04:59:00,57.6,55.9,30.12,SSW,193,4.0,9.0,94,0.15,,---,0.30,VWS V14.01,2013-04-17 08:59:00,
2013-04-17 05:04:00,57.9,55.6,30.12,SSW,202,5.0,16.0,92,0.10,,---,0.30,VWS V14.01,2013-04-17 09:04:00,
2013-04-17 05:09:00,57.9,55.3,30.12,SSW,212,10.0,16.0,91,0.11,,---,0.31,VWS V14.01,2013-04-17 09:09:00,
2013-04-17 05:14:00,58.0,55.1,30.12,SW,235,5.0,16.0,90,0.12,,---,0.32,VWS V14.01,2013-04-17 09:14:00,
2013-04-17 05:19:00,57.9,55.3,30.12,SSW,192,2.0,16.0,91,0.14,,---,0.34,VWS V14.01,2013-04-17 09:19:00,
2013-04-17 05:24:00,57.7,55.1,30.13,South,190,5.0,16.0,91,0.15,,---,0.35,VWS V14.01,2013-04-17 09:24:00,
2013-04-17 05:29:00,57.6,55.3,30.13,South,186,1.0,16.0,92,0.15,,---,0.35,VWS V14.01,2013-04-17 09:29:00,
2013-04-17 05:34:00,57.3,55.3,30.13,SE,136,1.0,6.0,93,0.12,,---,0.36,VWS V14.01,2013-04-17 09:34:00,
2013-04-17 05:39:00,57.0,55.0,30.12,East,99,3.0,7.0,93,0.12,,---,0.36,VWS V14.01,2013-04-17 09:39:00,
2013-04-17 05:44:00,56.9,55.2,30.12,SSE,166,1.0,7.0,94,0.12,,---,0.36,VWS V14.01,2013-04-17 09:44:00,
2013-04-17 05:49:00,56.8,55.1,30.12,SE,131,2.0,7.0,94,0.12,,---,0.36,VWS V14.01,2013-04-17 09:49:00,
2013-04-17 05:54:00,56.7,55.0,30.12,ESE,120,2.0,7.0,94,0.12,,---,0.36,VWS V14.01,2013-04-17 09:54:00,
2013-04-17 05:59:00,56.6,54.9,30.12,SE,124,2.0,7.0,94,0.12,,---,0.36,VWS V14.01,2013-04-17 09:59:00,
2013-04-17 06:04:00,56.5,55.1,30.12,SSE,149,3.0,5.0,95,0.06,,---,0.36,VWS V14.01,2013-04-17 10:04:00,
2013-04-17 06:09:00,56.5,55.1,30.12,SE,129,2.0,5.0,95,0.06,,---,0.36,VWS V14.01,2013-04-17 10:09:00,
2013-04-17 06:14:00,56.4,55.0,30.12,SW,228,5.0,5.0,95,0.06,,---,0.36,VWS V14.01,2013-04-17 10:14:00,
2013-04-17 06:19:00,56.3,54.9,30.12,SE,143,2.0,5.0,95,0.06,,---,0.36,VWS V14.01,2013-04-17 10:19:00,
2013-04-17 06:24:00,56.2,54.8,30.12,SE,141,1.0,5.0,95,0.06,,---,0.36,VWS V14.01,2013-04-17 10:24:00,
2013-04-17 06:29:00,56.1,54.7,30.12,SE,131,2.0,5.0,95,0.06,,---,0.36,VWS V14.01,2013-04-17 10:29:00,
2013-04-17 06:34:00,56.2,55.1,30.12,East,94,1.0,4.0,96,0.01,,---,0.36,VWS V14.01,2013-04-17 10:34:00,
2013-04-17 06:39:00,56.3,54.9,30.12,ESE,116,3.0,4.0,95,0.01,,---,0.36,VWS V14.01,2013-04-17 10:39:00,
2013-04-17 06:44:00,56.3,54.9,30.12,ESE,105,1.0,4.0,95,0.01,,---,0.36,VWS V14.01,2013-04-17 10:44:00,
2013-04-17 06:49:00,56.2,54.8,30.12,ENE,70,0.0,4.0,95,0.01,,---,0.36,VWS V14.01,2013-04-17 10:49:00,
2013-04-17 06:54:00,56.0,54.6,30.12,East,82,1.0,4.0,95,0.01,,---,0.36,VWS V14.01,2013-04-17 10:54:00,
2013-04-17 06:59:00,55.9,54.5,30.12,SE,131,1.0,4.0,95,0.01,,---,0.36,VWS V14.01,2013-04-17 10:59:00,
2013-04-17 07:04:00,55.8,54.7,30.12,SE,132,1.0,2.0,96,0.00,,---,0.36,VWS V14.01,2013-04-17 11:04:00,
2013-04-17 07:09:00,55.8,54.7,30.12,SE,131,1.0,2.0,96,0.00,,---,0.36,VWS V14.01,2013-04-17 11:09:00,
2013-04-17 07:14:00,55.7,54.6,30.13,SE,131,0.0,2.0,96,0.00,,---,0.36,VWS V14.01,2013-04-17 11:14:00,
2013-04-17 07:20:00,55.5,54.4,30.13,SE,132,0.0,2.0,96,0.00,,---,0.36,VWS V14.01,2013-04-17 11:20:00,
2013-04-17 07:25:00,55.6,54.5,30.13,SE,132,0.0,2.0,96,0.00,,---,0.36,VWS V14.01,2013-04-17 11:25:00,
2013-04-17 07:30:00,55.7,54.6,30.14,SE,132,0.0,0.0,96,0.00,,---,0.36,VWS V14.01,2013-04-17 11:30:00,
2013-04-17 07:35:00,55.9,54.5,30.14,SSE,160,0.0,2.0,95,0.00,,---,0.36,VWS V14.01,2013-04-17 11:35:00,
2013-04-17 07:40:00,56.0,54.6,30.14,SE,142,1.0,2.0,95,0.00,,---,0.36,VWS V14.01,2013-04-17 11:40:00,
2013-04-17 07:45:00,56.1,54.7,30.14,SE,142,0.0,2.0,95,0.00,,---,0.36,VWS V14.01,2013-04-17 11:45:00,
2013-04-17 07:50:00,56.2,55.1,30.14,SE,143,0.0,2.0,96,0.00,,---,0.36,VWS V14.01,2013-04-17 11:50:00,
2013-04-17 07:55:00,56.3,55.2,30.15,SE,142,0.0,2.0,96,0.00,,---,0.36,VWS V14.01,2013-04-17 11:55:00,
2013-04-17 08:00:00,56.5,55.4,30.15,SE,141,0.0,0.0,96,0.00,,---,0.36,VWS V14.01,2013-04-17 12:00:00,
2013-04-17 08:05:00,56.6,55.5,30.15,WNW,295,1.0,2.0,96,0.00,,---,0.36,VWS V14.01,2013-04-17 12:05:00,
2013-04-17 08:10:00,56.4,55.3,30.15,West,276,0.0,2.0,96,0.00,,---,0.36,VWS V14.01,2013-04-17 12:10:00,
2013-04-17 08:15:00,56.4,55.3,30.15,West,280,1.0,2.0,96,0.00,,---,0.36,VWS V14.01,2013-04-17 12:15:00,
2013-04-17 08:20:00,56.3,55.2,30.16,West,280,0.0,2.0,96,0.00,,---,0.36,VWS V14.01,2013-04-17 12:20:00,
2013-04-17 08:25:00,56.2,55.4,30.16,West,280,0.0,2.0,97,0.00,,---,0.36,VWS V14.01,2013-04-17 12:25:00,
2013-04-17 08:30:00,56.2,55.4,30.16,WNW,300,2.0,2.0,97,0.00,,---,0.36,VWS V14.01,2013-04-17 12:30:00,
2013-04-17 08:35:00,56.2,55.1,30.17,SW,225,1.0,4.0,96,0.00,,---,0.36,VWS V14.01,2013-04-17 12:35:00,
2013-04-17 08:40:00,56.2,55.1,30.17,SW,217,2.0,6.0,96,0.00,,---,0.36,VWS V14.01,2013-04-17 12:40:00,
2013-04-17 08:45:00,56.3,55.2,30.17,WNW,300,1.0,6.0,96,0.00,,---,0.36,VWS V14.01,2013-04-17 12:45:00,
2013-04-17 08:50:00,56.4,55.0,30.17,WNW,284,2.0,6.0,95,0.00,,---,0.36,VWS V14.01,2013-04-17 12:50:00,
2013-04-17 08:55:00,56.7,55.0,30.17,WSW,240,3.0,6.0,94,0.00,,---,0.36,VWS V14.01,2013-04-17 12:55:00,
2013-04-17 09:00:00,57.0,55.0,30.17,WSW,250,3.0,6.0,93,0.00,,---,0.36,VWS V14.01,2013-04-17 13:00:00,
2013-04-17 09:05:00,57.3,55.0,30.17,West,277,2.0,8.0,92,0.00,,---,0.36,VWS V14.01,2013-04-17 13:05:00,
2013-04-17 09:10:00,57.4,55.1,30.17,SW,229,5.0,8.0,92,0.00,,---,0.36,VWS V14.01,2013-04-17 13:10:00,
2013-04-17 09:15:00,57.4,55.1,30.18,WSW,242,3.0,8.0,92,0.00,,---,0.36,VWS V14.01,2013-04-17 13:15:00,
2013-04-17 09:20:00,57.4,55.4,30.18,WSW,238,5.0,11.0,93,0.00,,---,0.36,VWS V14.01,2013-04-17 13:20:00,
2013-04-17 09:25:00,57.4,55.4,30.18,SW,235,9.0,12.0,93,0.00,,---,0.36,VWS V14.01,2013-04-17 13:25:00,
2013-04-17 09:30:00,57.3,55.6,30.18,South,188,9.0,9.0,94,0.00,,---,0.36,VWS V14.01,2013-04-17 13:30:00,
2013-04-17 09:36:00,57.3,55.6,30.18,WSW,245,6.0,11.0,94,0.00,,---,0.36,VWS V14.01,2013-04-17 13:36:00,
2013-04-17 09:41:00,57.2,55.5,30.18,SW,221,4.0,11.0,94,0.00,,---,0.36,VWS V14.01,2013-04-17 13:41:00,
2013-04-17 09:46:00,57.2,55.8,30.17,WSW,254,8.0,13.0,95,0.00,,---,0.36,VWS V14.01,2013-04-17 13:46:00,
2013-04-17 09:51:00,57.0,55.6,30.17,SW,226,7.0,13.0,95,0.00,,---,0.36,VWS V14.01,2013-04-17 13:51:00,
2013-04-17 09:56:00,57.0,55.9,30.17,SW,214,6.0,13.0,96,0.01,,---,0.37,VWS V14.01,2013-04-17 13:56:00,
2013-04-17 10:01:00,56.9,55.8,30.17,WSW,255,4.0,13.0,96,0.01,,---,0.37,VWS V14.01,2013-04-17 14:01:00,
2013-04-17 10:06:00,56.8,55.7,30.17,SSW,208,8.0,14.0,96,0.01,,---,0.37,VWS V14.01,2013-04-17 14:06:00,
2013-04-17 10:11:00,56.8,55.7,30.17,WSW,240,5.0,14.0,96,0.01,,---,0.37,VWS V14.01,2013-04-17 14:11:00,
2013-04-17 10:16:00,56.7,55.9,30.17,SW,226,4.0,14.0,97,0.01,,---,0.37,VWS V14.01,2013-04-17 14:16:00,
2013-04-17 10:21:00,56.7,55.9,30.17,SW,236,7.0,14.0,97,0.01,,---,0.37,VWS V14.01,2013-04-17 14:21:00,
2013-04-17 10:27:00,56.7,55.9,30.17,SSW,201,8.0,14.0,97,0.01,,---,0.37,VWS V14.01,2013-04-17 14:27:00,
2013-04-17 10:32:00,56.6,55.8,30.17,SSW,210,4.0,13.0,97,0.01,,---,0.37,VWS V14.01,2013-04-17 14:32:00,
2013-04-17 10:37:00,56.6,55.8,30.17,SW,215,4.0,13.0,97,0.02,,---,0.38,VWS V14.01,2013-04-17 14:37:00,
2013-04-17 10:42:00,56.6,55.8,30.17,SW,228,7.0,13.0,97,0.02,,---,0.38,VWS V14.01,2013-04-17 14:42:00,
2013-04-17 10:47:00,56.6,55.8,30.17,SSW,208,2.0,13.0,97,0.02,,---,0.38,VWS V14.01,2013-04-17 14:47:00,
2013-04-17 10:52:00,56.7,55.9,30.17,South,186,7.0,13.0,97,0.02,,---,0.38,VWS V14.01,2013-04-17 14:52:00,
2013-04-17 10:57:00,56.7,55.9,30.18,SW,218,4.0,13.0,97,0.02,,---,0.38,VWS V14.01,2013-04-17 14:57:00,
2013-04-17 11:02:00,56.7,55.9,30.18,WSW,240,4.0,11.0,97,0.02,,---,0.39,VWS V14.01,2013-04-17 15:02:00,
2013-04-17 11:07:00,56.7,55.9,30.18,WSW,244,8.0,11.0,97,0.02,,---,0.39,VWS V14.01,2013-04-17 15:07:00,
2013-04-17 11:12:00,56.7,55.9,30.19,SSW,205,7.0,11.0,97,0.02,,---,0.39,VWS V14.01,2013-04-17 15:12:00,
2013-04-17 11:17:00,56.7,56.1,30.18,SW,218,6.0,11.0,98,0.02,,---,0.39,VWS V14.01,2013-04-17 15:17:00,
2013-04-17 11:22:00,56.7,56.1,30.18,WSW,250,2.0,11.0,98,0.02,,---,0.39,VWS V14.01,2013-04-17 15:22:00,
2013-04-17 11:27:00,56.7,56.1,30.17,SW,232,7.0,11.0,98,0.02,,---,0.39,VWS V14.01,2013-04-17 15:27:00,
2013-04-17 11:32:00,56.7,56.1,30.17,West,272,4.0,9.0,98,0.02,,---,0.39,VWS V14.01,2013-04-17 15:32:00,
2013-04-17 11:37:00,56.8,56.2,30.17,SSW,208,5.0,11.0,98,0.02,,---,0.39,VWS V14.01,2013-04-17 15:37:00,
2013-04-17 11:42:00,57.0,56.2,30.17,WSW,253,4.0,11.0,97,0.02,,---,0.39,VWS V14.01,2013-04-17 15:42:00,
2013-04-17 11:47:00,57.2,56.4,30.17,West,281,3.0,11.0,97,0.02,,---,0.39,VWS V14.01,2013-04-17 15:47:00,
2013-04-17 11:52:00,57.5,56.7,30.17,West,280,2.0,11.0,97,0.02,,---,0.39,VWS V14.01,2013-04-17 15:52:00,
2013-04-17 11:57:00,57.6,56.5,30.17,SW,226,3.0,11.0,96,0.02,,---,0.39,VWS V14.01,2013-04-17 15:57:00,
2013-04-17 12:02:00,57.8,56.7,30.16,SW,214,4.0,7.0,96,0.00,,---,0.39,VWS V14.01,2013-04-17 16:02:00,
2013-04-17 12:07:00,57.9,56.8,30.16,SW,216,2.0,7.0,96,0.00,,---,0.39,VWS V14.01,2013-04-17 16:07:00,
2013-04-17 12:12:00,58.1,57.0,30.16,WSW,253,0.0,7.0,96,0.00,,---,0.39,VWS V14.01,2013-04-17 16:12:00,
2013-04-17 12:17:00,58.2,56.8,30.16,WSW,246,2.0,7.0,95,0.00,,---,0.39,VWS V14.01,2013-04-17 16:17:00,
2013-04-17 12:22:00,58.3,56.9,30.17,SW,230,7.0,7.0,95,0.00,,---,0.39,VWS V14.01,2013-04-17 16:22:00,
2013-04-17 12:27:00,58.2,56.8,30.16,SSW,196,5.0,7.0,95,0.00,,---,0.39,VWS V14.01,2013-04-17 16:27:00,
2013-04-17 12:32:00,58.2,56.8,30.16,SSE,163,2.0,4.0,95,0.00,,---,0.39,VWS V14.01,2013-04-17 16:32:00,
2013-04-17 12:37:00,58.2,56.5,30.16,SE,126,2.0,6.0,94,0.00,,---,0.39,VWS V14.01,2013-04-17 16:37:00,
2013-04-17 12:42:00,58.5,56.8,30.15,ESE,104,2.0,6.0,94,0.00,,---,0.39,VWS V14.01,2013-04-17 16:42:00,
2013-04-17 12:47:00,58.6,56.9,30.15,SW,224,1.0,7.0,94,0.00,,---,0.39,VWS V14.01,2013-04-17 16:47:00,
2013-04-17 12:52:00,58.9,57.2,30.15,ENE,78,2.0,7.0,94,0.00,,---,0.39,VWS V14.01,2013-04-17 16:52:00,
2013-04-17 12:57:00,58.8,56.5,30.15,East,94,1.0,7.0,92,0.00,,---,0.39,VWS V14.01,2013-04-17 16:57:00,
2013-04-17 13:02:00,58.6,56.0,30.15,East,92,1.0,5.0,91,0.00,,---,0.39,VWS V14.01,2013-04-17 17:02:00,
2013-04-17 13:07:00,58.7,56.4,30.15,ESE,122,1.0,5.0,92,0.00,,---,0.39,VWS V14.01,2013-04-17 17:07:00,
2013-04-17 13:12:00,59.0,56.7,30.15,SE,131,0.0,5.0,92,0.00,,---,0.39,VWS V14.01,2013-04-17 17:12:00,
2013-04-17 13:18:00,59.4,56.8,30.15,North,358,1.0,5.0,91,0.00,,---,0.39,VWS V14.01,2013-04-17 17:18:00,
2013-04-17 13:23:00,59.7,57.1,30.15,ENE,68,0.0,6.0,91,0.00,,---,0.39,VWS V14.01,2013-04-17 17:23:00,
2013-04-17 13:28:00,59.8,56.9,30.14,NNE,27,2.0,6.0,90,0.00,,---,0.39,VWS V14.01,2013-04-17 17:28:00,
2013-04-17 13:33:00,60.0,56.8,30.14,North,9,2.0,5.0,89,0.00,,---,0.39,VWS V14.01,2013-04-17 17:33:00,
2013-04-17 13:38:00,60.5,57.6,30.14,NNE,13,2.0,5.0,90,0.00,,---,0.39,VWS V14.01,2013-04-17 17:38:00,
2013-04-17 13:43:00,60.8,57.2,30.13,East,96,1.0,6.0,88,0.00,,---,0.39,VWS V14.01,2013-04-17 17:43:00,
2013-04-17 13:48:00,61.3,57.7,30.13,NNW,346,1.0,6.0,88,0.00,,---,0.39,VWS V14.01,2013-04-17 17:48:00,
2013-04-17 13:53:00,61.8,57.6,30.13,East,97,1.0,6.0,86,0.00,,---,0.39,VWS V14.01,2013-04-17 17:53:00,
2013-04-17 13:58:00,62.2,58.0,30.12,NNE,25,0.0,6.0,86,0.00,,---,0.39,VWS V14.01,2013-04-17 17:58:00,
2013-04-17 14:03:00,62.7,58.1,30.12,ESE,104,0.0,3.0,85,0.00,,---,0.39,VWS V14.01,2013-04-17 18:03:00,
2013-04-17 14:08:00,63.3,57.7,30.12,NNW,339,1.0,3.0,82,0.00,,---,0.39,VWS V14.01,2013-04-17 18:08:00,
2013-04-17 14:13:00,63.4,58.2,30.13,NNW,332,0.0,3.0,83,0.00,,---,0.39,VWS V14.01,2013-04-17 18:13:00,
2013-04-17 14:18:00,63.7,58.1,30.12,ESE,113,2.0,3.0,82,0.00,,---,0.39,VWS V14.01,2013-04-17 18:18:00,
2013-04-17 14:23:00,63.6,58.0,30.12,ENE,78,5.0,8.0,82,0.00,,---,0.39,VWS V14.01,2013-04-17 18:23:00,
2013-04-17 14:28:00,63.3,58.1,30.13,SSE,148,5.0,10.0,83,0.00,,---,0.39,VWS V14.01,2013-04-17 18:28:00,
2013-04-17 14:33:00,63.0,57.1,30.12,ESE,117,5.0,9.0,81,0.00,,---,0.39,VWS V14.01,2013-04-17 18:33:00,
2013-04-17 14:38:00,63.1,57.9,30.12,SE,124,4.0,10.0,83,0.00,,---,0.39,VWS V14.01,2013-04-17 18:38:00,
2013-04-17 14:43:00,63.2,58.3,30.14,West,280,2.0,10.0,84,0.00,,---,0.39,VWS V14.01,2013-04-17 18:43:00,
2013-04-17 14:48:00,63.5,58.2,30.14,SSW,211,4.0,10.0,83,0.00,,---,0.39,VWS V14.01,2013-04-17 18:48:00,
2013-04-17 14:53:00,63.3,58.4,30.13,NNW,329,1.0,10.0,84,0.00,,---,0.39,VWS V14.01,2013-04-17 18:53:00,
2013-04-17 14:58:00,63.9,58.0,30.12,SSW,194,1.0,10.0,81,0.00,,---,0.39,VWS V14.01,2013-04-17 18:58:00,
2013-04-17 15:03:00,64.1,57.8,30.12,ENE,68,0.0,5.0,80,0.00,,---,0.39,VWS V14.01,2013-04-17 19:03:00,
2013-04-17 15:08:00,64.6,59.3,30.11,ENE,58,3.0,7.0,83,0.00,,---,0.39,VWS V14.01,2013-04-17 19:08:00,
2013-04-17 15:13:00,65.2,59.9,30.11,ESE,103,3.0,7.0,83,0.00,,---,0.39,VWS V14.01,2013-04-17 19:13:00,
2013-04-17 15:18:00,65.9,58.9,30.11,South,183,2.0,7.0,78,0.00,,---,0.39,VWS V14.01,2013-04-17 19:18:00,
2013-04-17 15:23:00,66.0,57.9,30.11,South,181,2.0,8.0,75,0.00,,---,0.39,VWS V14.01,2013-04-17 19:23:00,
2013-04-17 15:28:00,66.1,57.6,30.11,NE,45,3.0,8.0,74,0.00,,---,0.39,VWS V14.01,2013-04-17 19:28:00,
2013-04-17 15:33:00,66.2,57.7,30.11,SSE,148,3.0,5.0,74,0.00,,---,0.39,VWS V14.01,2013-04-17 19:33:00,
2013-04-17 15:38:00,66.2,57.3,30.11,ESE,115,4.0,5.0,73,0.00,,---,0.39,VWS V14.01,2013-04-17 19:38:00,
2013-04-17 15:43:00,66.8,57.9,30.11,South,176,1.0,5.0,73,0.00,,---,0.39,VWS V14.01,2013-04-17 19:43:00,
2013-04-17 15:48:00,67.6,58.3,30.11,SE,124,3.0,5.0,72,0.00,,---,0.39,VWS V14.01,2013-04-17 19:48:00,
2013-04-17 15:53:00,67.7,58.0,30.10,East,94,2.0,5.0,71,0.00,,---,0.39,VWS V14.01,2013-04-17 19:53:00,
2013-04-17 15:58:00,67.8,58.1,30.11,SSE,150,1.0,5.0,71,0.00,,---,0.39,VWS V14.01,2013-04-17 19:58:00,
2013-04-17 16:03:00,68.3,58.5,30.10,ESE,117,0.0,2.0,71,0.00,,---,0.39,VWS V14.01,2013-04-17 20:03:00,
2013-04-17 16:08:00,68.8,58.2,30.10,South,179,2.0,5.0,69,0.00,,---,0.39,VWS V14.01,2013-04-17 20:08:00,
2013-04-17 16:13:00,68.3,57.3,30.10,SW,215,2.0,5.0,68,0.00,,---,0.39,VWS V14.01,2013-04-17 20:13:00,
2013-04-17 16:19:00,68.1,58.3,30.10,SSE,159,2.0,5.0,71,0.00,,---,0.39,VWS V14.01,2013-04-17 20:19:00,
2013-04-17 16:24:00,68.0,57.1,30.10,East,100,3.0,5.0,68,0.00,,---,0.39,VWS V14.01,2013-04-17 20:24:00,
2013-04-17 16:29:00,67.8,56.9,30.10,South,190,2.0,6.0,68,0.00,,---,0.39,VWS V14.01,2013-04-17 20:29:00,
2013-04-17 16:34:00,68.1,55.9,30.09,ESE,117,2.0,3.0,65,0.00,,---,0.39,VWS V14.01,2013-04-17 20:34:00,
2013-04-17 16:39:00,68.0,56.2,30.09,East,82,0.0,5.0,66,0.00,,---,0.39,VWS V14.01,2013-04-17 20:39:00,
2013-04-17 16:44:00,68.3,56.9,30.10,SSW,204,2.0,5.0,67,0.00,,---,0.39,VWS V14.01,2013-04-17 20:44:00,
2013-04-17 16:49:00,68.7,56.5,30.10,SE,136,3.0,5.0,65,0.00,,---,0.39,VWS V14.01,2013-04-17 20:49:00,
2013-04-17 16:54:00,68.5,56.3,30.10,ESE,107,0.0,5.0,65,0.00,,---,0.39,VWS V14.01,2013-04-17 20:54:00,
2013-04-17 16:59:00,68.7,57.3,30.09,SSE,155,1.0,5.0,67,0.00,,---,0.39,VWS V14.01,2013-04-17 20:59:00,
2013-04-17 17:04:00,68.8,57.0,30.09,SW,219,2.0,3.0,66,0.00,,---,0.39,VWS V14.01,2013-04-17 21:04:00,
2013-04-17 17:09:00,68.4,56.6,30.09,SSW,203,1.0,4.0,66,0.00,,---,0.39,VWS V14.01,2013-04-17 21:09:00,
2013-04-17 17:14:00,68.6,57.6,30.09,SSE,150,1.0,4.0,68,0.00,,---,0.39,VWS V14.01,2013-04-17 21:14:00,
2013-04-17 17:19:00,68.9,58.3,30.09,SSE,150,0.0,4.0,69,0.00,,---,0.39,VWS V14.01,2013-04-17 21:19:00,
2013-04-17 17:24:00,69.1,57.3,30.09,SE,131,1.0,4.0,66,0.00,,---,0.39,VWS V14.01,2013-04-17 21:24:00,
2013-04-17 17:29:00,69.0,57.6,30.09,ENE,70,2.0,4.0,67,0.00,,---,0.39,VWS V14.01,2013-04-17 21:29:00,
2013-04-17 17:34:00,69.1,57.7,30.08,ESE,107,2.0,3.0,67,0.00,,---,0.39,VWS V14.01,2013-04-17 21:34:00,
2013-04-17 17:39:00,68.9,57.1,30.08,SE,132,4.0,6.0,66,0.00,,---,0.39,VWS V14.01,2013-04-17 21:39:00,
2013-04-17 17:44:00,68.8,57.4,30.08,SE,128,6.0,6.0,67,0.00,,---,0.39,VWS V14.01,2013-04-17 21:44:00,
2013-04-17 17:49:00,68.8,57.4,30.08,ESE,122,5.0,8.0,67,0.00,,---,0.39,VWS V14.01,2013-04-17 21:49:00,
2013-04-17 17:54:00,68.6,56.0,30.08,ESE,120,3.0,9.0,64,0.00,,---,0.39,VWS V14.01,2013-04-17 21:54:00,
2013-04-17 17:59:00,68.6,55.5,30.08,ESE,104,6.0,9.0,63,0.00,,---,0.39,VWS V14.01,2013-04-17 21:59:00,
2013-04-17 18:04:00,68.2,54.7,30.08,ESE,112,4.0,7.0,62,0.00,,---,0.39,VWS V14.01,2013-04-17 22:04:00,
2013-04-17 18:09:00,67.9,54.0,30.08,SE,135,3.0,7.0,61,0.00,,---,0.39,VWS V14.01,2013-04-17 22:09:00,
2013-04-17 18:14:00,67.6,54.6,30.08,ESE,122,5.0,7.0,63,0.00,,---,0.39,VWS V14.01,2013-04-17 22:14:00,
2013-04-17 18:19:00,67.4,54.4,30.08,ESE,122,2.0,7.0,63,0.00,,---,0.39,VWS V14.01,2013-04-17 22:19:00,
2013-04-17 18:24:00,67.3,54.7,30.08,SE,130,1.0,7.0,64,0.00,,---,0.39,VWS V14.01,2013-04-17 22:24:00,
2013-04-17 18:29:00,67.1,54.5,30.08,SE,144,1.0,7.0,64,0.00,,---,0.39,VWS V14.01,2013-04-17 22:29:00,
2013-04-17 18:34:00,67.2,55.5,30.09,SE,130,1.0,2.0,66,0.00,,---,0.39,VWS V14.01,2013-04-17 22:34:00,
2013-04-17 18:39:00,67.3,56.0,30.08,ESE,107,1.0,3.0,67,0.00,,---,0.39,VWS V14.01,2013-04-17 22:39:00,
2013-04-17 18:44:00,67.3,56.4,30.08,ESE,108,1.0,5.0,68,0.00,,---,0.39,VWS V14.01,2013-04-17 22:44:00,
2013-04-17 18:49:00,67.2,55.9,30.08,ENE,75,2.0,5.0,67,0.00,,---,0.39,VWS V14.01,2013-04-17 22:49:00,
2013-04-17 18:54:00,67.1,55.8,30.08,East,96,3.0,5.0,67,0.00,,---,0.39,VWS V14.01,2013-04-17 22:54:00,
2013-04-17 18:59:00,67.1,56.2,30.08,SE,129,1.0,5.0,68,0.00,,---,0.39,VWS V14.01,2013-04-17 22:59:00,
2013-04-17 19:04:00,67.0,56.1,30.08,East,101,2.0,5.0,68,0.00,,---,0.39,VWS V14.01,2013-04-17 23:04:00,
2013-04-17 19:09:00,66.8,55.9,30.08,East,100,2.0,5.0,68,0.00,,---,0.39,VWS V14.01,2013-04-17 23:09:00,
2013-04-17 19:14:00,66.5,56.4,30.08,SE,124,1.0,5.0,70,0.00,,---,0.39,VWS V14.01,2013-04-17 23:14:00,
2013-04-17 19:19:00,66.3,56.2,30.08,ESE,115,1.0,5.0,70,0.00,,---,0.39,VWS V14.01,2013-04-17 23:19:00,
2013-04-17 19:24:00,66.1,56.4,30.08,East,87,3.0,5.0,71,0.00,,---,0.39,VWS V14.01,2013-04-17 23:24:00,
2013-04-17 19:29:00,65.7,56.4,30.08,East,87,2.0,5.0,72,0.00,,---,0.39,VWS V14.01,2013-04-17 23:29:00,
2013-04-17 19:35:00,65.6,56.3,30.08,ESE,110,2.0,4.0,72,0.00,,---,0.39,VWS V14.01,2013-04-17 23:35:00,
2013-04-17 19:40:00,65.4,56.5,30.07,ESE,110,2.0,4.0,73,0.00,,---,0.39,VWS V14.01,2013-04-17 23:40:00,
2013-04-17 19:45:00,65.1,56.2,30.07,ESE,122,2.0,4.0,73,0.00,,---,0.39,VWS V14.01,2013-04-17 23:45:00,
2013-04-17 19:50:00,64.8,56.0,30.07,ENE,64,3.0,4.0,73,0.00,,---,0.39,VWS V14.01,2013-04-17 23:50:00,
2013-04-17 19:55:00,64.7,56.2,30.07,SE,136,2.0,4.0,74,0.00,,---,0.39,VWS V14.01,2013-04-17 23:55:00,
2013-04-17 20:00:00,64.5,56.0,30.07,ESE,122,1.0,1.0,74,0.00,,---,0.39,VWS V14.01,2013-04-18 00:00:00,
2013-04-17 20:05:00,64.2,55.8,30.07,ESE,110,1.0,2.0,74,0.00,,---,0.39,VWS V14.01,2013-04-18 00:05:00,
2013-04-17 20:10:00,63.9,55.8,30.07,ESE,108,3.0,3.0,75,0.00,,---,0.39,VWS V14.01,2013-04-18 00:10:00,
2013-04-17 20:15:00,63.3,55.6,30.07,SE,126,2.0,4.0,76,0.00,,---,0.39,VWS V14.01,2013-04-18 00:15:00,
2013-04-17 20:20:00,62.9,55.6,30.07,ESE,118,3.0,4.0,77,0.00,,---,0.39,VWS V14.01,2013-04-18 00:20:00,
2013-04-17 20:25:00,62.7,55.8,30.07,ENE,74,2.0,5.0,78,0.00,,---,0.39,VWS V14.01,2013-04-18 00:25:00,
2013-04-17 20:30:00,62.6,55.7,30.07,ESE,104,2.0,4.0,78,0.00,,---,0.39,VWS V14.01,2013-04-18 00:30:00,
2013-04-17 20:35:00,62.6,55.7,30.07,SE,126,1.0,5.0,78,0.00,,---,0.39,VWS V14.01,2013-04-18 00:35:00,
2013-04-17 20:40:00,62.6,55.7,30.08,East,101,3.0,5.0,78,0.00,,---,0.39,VWS V14.01,2013-04-18 00:40:00,
2013-04-17 20:45:00,62.7,55.8,30.08,ENE,71,1.0,5.0,78,0.00,,---,0.39,VWS V14.01,2013-04-18 00:45:00,
2013-04-17 20:50:00,62.6,55.7,30.07,ESE,107,3.0,5.0,78,0.00,,---,0.39,VWS V14.01,2013-04-18 00:50:00,
2013-04-17 20:55:00,62.4,55.5,30.07,ENE,71,4.0,5.0,78,0.00,,---,0.39,VWS V14.01,2013-04-18 00:55:00,
2013-04-17 21:00:00,62.3,55.4,30.07,ESE,108,3.0,3.0,78,0.00,,---,0.39,VWS V14.01,2013-04-18 01:00:00,
2013-04-17 21:05:00,62.1,55.5,30.07,ESE,108,2.0,4.0,79,0.00,,---,0.39,VWS V14.01,2013-04-18 01:05:00,
2013-04-17 21:10:00,61.9,55.3,30.07,East,95,3.0,4.0,79,0.00,,---,0.39,VWS V14.01,2013-04-18 01:10:00,
2013-04-17 21:15:00,61.8,54.9,30.07,ESE,120,2.0,4.0,78,0.00,,---,0.39,VWS V14.01,2013-04-18 01:15:00,
2013-04-17 21:20:00,61.6,55.0,30.08,ESE,117,2.0,4.0,79,0.00,,---,0.39,VWS V14.01,2013-04-18 01:20:00,
2013-04-17 21:25:00,61.4,54.8,30.08,ESE,113,2.0,4.0,79,0.00,,---,0.39,VWS V14.01,2013-04-18 01:25:00,
2013-04-17 21:30:00,61.5,54.9,30.09,East,98,1.0,3.0,79,0.00,,---,0.39,VWS V14.01,2013-04-18 01:30:00,
2013-04-17 21:35:00,61.5,54.6,30.09,ESE,110,2.0,5.0,78,0.00,,---,0.39,VWS V14.01,2013-04-18 01:35:00,
2013-04-17 21:40:00,61.5,54.6,30.09,ESE,110,4.0,6.0,78,0.00,,---,0.39,VWS V14.01,2013-04-18 01:40:00,
2013-04-17 21:45:00,61.5,54.6,30.09,SE,124,3.0,6.0,78,0.00,,---,0.39,VWS V14.01,2013-04-18 01:45:00,
2013-04-17 21:50:00,61.5,54.6,30.10,ESE,107,2.0,6.0,78,0.00,,---,0.39,VWS V14.01,2013-04-18 01:50:00,
2013-04-17 21:55:00,61.5,54.6,30.09,ESE,116,4.0,7.0,78,0.00,,---,0.39,VWS V14.01,2013-04-18 01:55:00,
2013-04-17 22:00:00,61.1,54.5,30.10,ESE,115,3.0,4.0,79,0.00,,---,0.39,VWS V14.01,2013-04-18 02:00:00,
2013-04-17 22:05:00,61.2,54.3,30.10,SE,129,6.0,6.0,78,0.00,,---,0.39,VWS V14.01,2013-04-18 02:05:00,
2013-04-17 22:10:00,61.4,54.1,30.10,ESE,104,3.0,7.0,77,0.00,,---,0.39,VWS V14.01,2013-04-18 02:10:00,
2013-04-17 22:15:00,61.7,54.4,30.09,ESE,117,4.0,9.0,77,0.00,,---,0.39,VWS V14.01,2013-04-18 02:15:00,
2013-04-17 22:20:00,61.4,54.1,30.09,SE,126,4.0,9.0,77,0.00,,---,0.39,VWS V14.01,2013-04-18 02:20:00,
2013-04-17 22:25:00,61.4,54.1,30.09,SE,131,4.0,9.0,77,0.00,,---,0.39,VWS V14.01,2013-04-18 02:25:00,
2013-04-17 22:30:00,61.2,53.9,30.09,SE,130,2.0,5.0,77,0.00,,---,0.39,VWS V14.01,2013-04-18 02:30:00,
2013-04-17 22:36:00,61.2,53.9,30.09,ESE,110,4.0,7.0,77,0.00,,---,0.39,VWS V14.01,2013-04-18 02:36:00,
2013-04-17 22:41:00,61.7,54.1,30.09,ESE,110,4.0,10.0,76,0.00,,---,0.39,VWS V14.01,2013-04-18 02:41:00,
2013-04-17 22:46:00,62.0,54.0,30.08,ENE,73,3.0,10.0,75,0.00,,---,0.39,VWS V14.01,2013-04-18 02:46:00,
2013-04-17 22:51:00,62.0,54.4,30.08,East,82,5.0,10.0,76,0.00,,---,0.39,VWS V14.01,2013-04-18 02:51:00,
2013-04-17 22:56:00,61.8,54.2,30.08,East,100,5.0,10.0,76,0.00,,---,0.39,VWS V14.01,2013-04-18 02:56:00,
2013-04-17 23:01:00,61.6,54.0,30.08,East,99,4.0,7.0,76,0.00,,---,0.39,VWS V14.01,2013-04-18 03:01:00,
2013-04-17 23:06:00,61.4,53.8,30.07,ESE,112,7.0,9.0,76,0.00,,---,0.39,VWS V14.01,2013-04-18 03:06:00,
2013-04-17 23:11:00,61.5,54.2,30.07,ESE,103,6.0,9.0,77,0.00,,---,0.39,VWS V14.01,2013-04-18 03:11:00,
2013-04-17 23:16:00,61.7,54.1,30.07,East,79,5.0,9.0,76,0.00,,---,0.39,VWS V14.01,2013-04-18 03:16:00,
2013-04-17 23:21:00,61.4,54.1,30.06,East,84,4.0,9.0,77,0.00,,---,0.39,VWS V14.01,2013-04-18 03:21:00,
2013-04-17 23:26:00,61.3,54.0,30.06,SE,126,4.0,9.0,77,0.00,,---,0.39,VWS V14.01,2013-04-18 03:26:00,
2013-04-17 23:31:00,61.3,54.0,30.06,East,90,4.0,8.0,77,0.00,,---,0.39,VWS V14.01,2013-04-18 03:31:00,
2013-04-17 23:36:00,61.3,54.0,30.06,East,88,2.0,8.0,77,0.00,,---,0.39,VWS V14.01,2013-04-18 03:36:00,
2013-04-17 23:41:00,61.3,54.0,30.05,ESE,118,5.0,8.0,77,0.00,,---,0.39,VWS V14.01,2013-04-18 03:41:00,
2013-04-17 23:46:00,61.4,54.1,30.05,ESE,115,6.0,8.0,77,0.00,,---,0.39,VWS V14.01,2013-04-18 03:46:00,
2013-04-17 23:51:00,61.2,53.9,30.05,ESE,117,4.0,9.0,77,0.00,,---,0.39,VWS V14.01,2013-04-18 03:51:00,
2013-04-17 23:56:00,60.9,54.0,30.05,East,88,4.0,9.0,78,0.00,,---,0.39,VWS V14.01,2013-04-18 03:56:00,